Location: Bakhuizen
(52.8696°N, 5.4575°E)
Time: 20:42:46
(UTC+00:00)

Cosmos 1933 Rocket - Pass Details

Date: 11 May 2021
Orbit: 607 x 630 km, 82.5° (Epoch: 21 June)

Event Time Altitude Azimuth Distance (km) Brightness Sun altitude
Rises 20:58:08 0° 347° (NNW) 2,882 8.3 -11.4°
Reaches altitude 10° 21:00:22 10° 347° (NNW) 1,972 7.3 -11.6°
Maximum altitude 21:04:43 77° 262° (W) 630 3.6 -12.0°
Enters shadow 21:08:27 14° 177° (S) 1,723 5.3 -12.3°
